EHI
0 0 0 0 0 0 0 0 0 0 0 0 0 0 0 0 0 0 0 0 0 0 0 0 1 3 3 2 1 0 0 0 0 0 0 0 0 0 0 0 0 0 0 0 0 0 0 0 0
0 0 0 0 0 0 0 0 0 0 0 0 0 0 0 0 0 0 0 0 0 0 0 0 3 8 13 16 16 12 6 1 0 0 0 0 0 0 0 0 0 0 0 0 0 0 0 0 0
0 0 0 0 0 0 0 0 0 0 0 0 0 0 0 0 0 0 0 0 0 0 0 0 3 10 19 26 31 32 27 20 11 3 0 0 0 0 0 0 0 0 0 0 0 0 0 0 0
0 0 0 0 0 0 0 0 0 0 0 0 0 0 0 0 0 0 0 0 0 0 0 0 1 4 10 15 22 30 37 41 33 17 7 2 0 0 0 0 0 0 0 0 0 0 0 0 0
0 0 0 0 0 0 0 0 0 0 0 0 0 0 0 0 0 0 0 0 0 0 0 0 0 0 0 1 4 10 20 30 33 27 17 14 13 7 2 0 0 0 0 0 0 0 0 0 0
0 0 0 0 0 0 0 0 0 0 0 0 0 0 0 0 0 0 0 0 0 0 0 0 0 0 0 0 0 0 2 7 12 13 15 22 29 24 13 4 0 0 0 0 0 0 0 0 0
0 0 0 0 0 0 0 0 0 0 0 0 0 0 0 0 0 0 0 0 0 0 0 0 0 0 0 0 0 0 0 0 0 1 4 12 22 29 21 8 2 2 2 1 0 0 0 0 0
0 0 0 0 0 0 0 0 0 0 0 0 0 0 0 0 0 0 0 0 0 0 0 0 0 0 0 0 0 0 0 0 0 0 0 0 6 12 12 6 3 6 6 3 1 0 0 0 0
0 0 0 0 0 0 0 0 0 0 0 0 0 0 0 0 0 0 0 0 0 0 0 0 0 0 0 0 0 0 0 0 0 0 0 0 0 0 1 1 2 5 7 5 1 0 0 0 0
0 0 0 0 0 0 0 0 0 0 0 0 0 0 0 0 0 0 0 0 0 0 0 0 0 0 0 0 0 0 0 0 0 0 0 0 0 0 0 0 0 1 2 2 1 1 0 0 0
0 0 0 0 0 0 0 0 0 0 0 0 0 0 0 0 0 0 0 0 0 0 0 0 0 0 0 0 0 0 0 0 0 0 0 0 0 0 0 0 0 0 0 0 0 0 0 0 0
0 0 0 0 0 0 0 0 0 0 0 0 0 0 0 0 0 0 0 0 0 0 0 0 0 0 0 0 0 0 0 0 0 0 0 0 0 0 0 0 0 0 0 0 0 0 0 0 0
0 0 0 0 0 0 0 0 0 0 0 0 0 0 0 0 0 0 0 0 0 0 0 0 0 0 0 0 0 0 0 0 0 0 0 0 0 0 0 0 0 0 0 0 0 0 0 0 0
0 0 0 0 0 0 0 0 0 0 0 0 0 0 0 0 0 0 0 0 0 0 0 0 0 0 0 0 0 0 0 0 0 0 0 0 0 0 0 0 0 0 0 0 0 0 0 0 0
0 0 0 0 0 0 0 0 0 0 0 0 0 0 0 0 0 0 0 0 0 0 0 0 0 0 0 0 0 0 0 0 0 0 0 0 0 0 0 0 0 0 0 0 0 0 0 0 0
0 0 0 0 0 0 0 0 0 0 0 0 0 0 0 0 0 0 0 0 0 0 0 0 0 0 0 0 0 0 0 0 0 0 0 0 0 0 0 0 0 0 0 0 0 0 0 0 0
0 0 0 0 0 0 0 0 0 0 0 0 0 0 0 0 0 0 0 0 0 0 0 0 0 0 0 0 0 0 0 0 0 0 0 0 0 0 0 0 0 0 0 0 0 0 0 0 0
0 0 0 0 0 0 0 0 0 0 0 0 0 0 0 0 0 0 0 0 0 0 0 0 0 0 0 0 0 0 0 0 0 0 0 0 0 0 0 0 0 0 0 0 0 0 0 0 0
0 0 0 0 0 0 0 0 0 0 0 0 0 0 0 0 0 0 0 0 0 0 0 0 0 0 0 0 0 0 0 0 0 0 0 0 0 0 0 0 0 0 0 0 0 0 0 0 0
0 0 0 0 0 0 0 0 0 0 0 0 0 0 0 0 0 0 0 0 0 0 0 0 0 0 0 0 0 0 0 0 0 0 0 0 0 0 0 0 0 0 0 0 0 0 0 0 0
0 0 0 0 0 0 0 0 0 0 0 0 0 0 0 0 0 0 0 0 0 0 0 0 0 0 0 0 0 0 0 0 0 0 0 0 0 0 0 0 0 0 0 0 0 0 0 0 0
0 0 0 0 0 0 0 0 0 0 0 0 0 0 0 0 0 0 0 0 0 0 0 0 0 0 0 0 0 0 0 0 0 0 0 0 0 0 0 0 0 0 0 0 0 0 0 0 0
0 0 0 0 0 0 0 0 0 0 0 0 0 0 0 0 0 0 0 0 0 0 0 0 0 0 0 0 0 0 0 0 0 0 0 0 0 0 0 0 0 0 0 0 0 0 0 0 0
0 0 0 0 0 0 0 0 0 0 0 0 0 0 0 0 0 0 0 0 0 0 0 0 0 0 0 0 0 0 0 0 0 0 0 0 0 0 0 0 0 0 0 0 0 0 0 0 0
0 0 0 0 0 0 0 0 0 0 0 0 0 0 0 0 0 0 0 0 0 0 0 0 0 0 0 0 0 0 0 0 0 0 0 0 0 0 0 0 0 0 0 0 0 0 0 0 0
0 0 0 0 0 0 0 0 0 0 0 0 0 0 0 0 0 0 0 0 0 0 0 0 0 0 0 0 0 0 0 0 0 0 0 0 0 0 0 0 0 0 0 0 0 0 0 0 0
0 0 0 0 0 0 0 0 0 0 0 0 0 0 0 0 0 0 0 0 0 0 0 0 0 0 0 0 0 0 0 0 0 0 0 0 0 0 0 0 0 0 0 0 0 0 0 0 0
0 0 0 0 0 0 0 0 0 0 0 0 0 0 0 0 0 0 0 0 0 0 0 0 0 0 0 0 0 0 0 0 0 0 0 0 0 0 0 0 0 0 0 0 0 0 0 0 0
0 0 0 0 0 0 0 0 0 0 0 0 0 0 0 0 0 0 0 0 0 0 0 0 0 0 0 0 0 0 0 0 0 0 0 0 0 0 0 0 0 0 0 0 0 0 0 0 0
0 0 0 0 0 0 0 0 0 0 0 0 0 0 0 0 0 0 0 0 0 0 0 0 0 0 0 0 0 0 0 0 0 0 0 0 0 0 0 0 0 0 0 0 0 0 0 0 0
Wind_Speed
8 6 3 3 4 11 14 10 10 13 13 16 18 18 20 19 14 11 16 26 22 19 18 20 21 18 15 13 12 11 11 9 10 10 10 10 11 11 9 8 8 9 9 10 10 10 9 8 8
6 4 2 1 10 15 13 11 13 13 10 6 14 18 18 19 15 12 17 23 21 20 20 22 27 25 22 20 17 14 13 11 10 9 10 11 11 12 11 10 10 10 10 11 11 11 11 9 8
3 3 1 6 14 14 11 12 9 11 19 13 12 15 14 13 12 13 17 17 16 19 19 23 29 29 29 27 25 22 19 16 13 11 11 12 13 13 13 12 11 11 11 11 11 10 11 10 8
3 1 5 14 22 17 14 15 11 8 15 18 13 15 12 11 10 13 15 16 19 20 20 24 29 29 30 29 29 28 27 24 19 15 12 13 14 14 14 15 13 12 12 12 10 9 9 9 9
1 5 13 17 18 15 18 18 18 16 11 16 17 14 11 11 12 12 14 18 21 21 21 24 30 30 31 31 30 29 28 28 27 24 19 17 15 14 15 14 13 12 12 11 9 8 7 6 7
3 4 12 16 15 13 14 18 13 21 15 13 11 12 11 12 15 15 17 19 21 22 22 22 27 28 29 30 30 30 29 28 28 28 27 24 21 17 15 13 12 12 11 9 8 8 8 7 6
6 8 13 14 12 10 9 11 19 13 18 15 9 8 7 18 15 14 16 18 21 22 21 21 22 23 25 25 28 27 28 28 27 28 27 25 24 22 18 15 14 13 12 11 10 9 9 8 7
3 7 10 9 10 7 6 8 12 17 16 13 13 10 9 15 14 13 14 18 21 22 22 22 22 22 20 19 23 25 26 27 26 26 27 24 22 22 21 18 18 17 14 13 12 11 10 10 8
2 7 8 6 8 8 6 8 10 14 18 20 17 16 11 11 12 15 18 21 22 23 22 21 22 22 21 19 19 20 20 23 22 21 25 20 15 16 15 19 21 19 16 15 13 12 11 10 9
6 6 8 6 8 14 14 14 9 11 16 16 17 15 13 14 17 20 22 22 23 23 22 20 20 20 20 16 15 13 13 15 16 16 18 15 14 13 15 17 19 20 18 15 12 12 11 11 8
9 10 9 12 15 16 13 14 11 9 13 14 14 14 14 17 19 21 21 20 19 20 20 20 19 19 18 14 13 10 9 11 13 17 18 15 13 12 13 10 12 13 14 11 11 10 8 9 8
13 12 11 11 9 10 12 11 14 17 12 11 12 13 15 19 20 20 20 19 18 19 20 20 19 18 17 15 12 12 11 11 11 14 17 14 11 12 13 10 12 11 9 11 10 8 10 10 11
14 14 19 21 22 21 21 20 17 15 11 11 12 15 18 18 17 16 16 17 18 19 20 21 20 19 18 14 12 12 12 12 14 12 13 15 12 13 13 11 11 12 12 12 12 10 11 11 11
17 21 18 15 14 13 18 14 10 11 9 11 13 15 16 17 17 17 18 19 20 19 20 19 20 19 19 15 15 13 12 12 13 12 15 16 14 13 13 13 12 12 12 13 13 14 12 10 10
22 18 14 9 11 12 12 14 10 7 8 12 13 13 14 15 16 17 17 18 19 18 18 18 18 18 18 17 16 13 12 13 12 12 15 17 17 16 15 12 12 12 13 14 13 15 12 11 11
9 8 7 6 3 3 2 9 7 4 8 12 12 12 12 14 16 16 17 17 18 18 18 18 16 18 19 17 16 13 12 13 11 12 13 17 18 19 16 13 12 13 13 11 11 12 12 12 11
6 3 7 7 5 3 5 10 8 4 7 10 11 12 12 13 15 16 17 17 18 18 19 19 20 19 18 17 15 14 13 13 12 11 12 15 17 18 15 13 13 15 12 11 11 12 12 13 12
3 4 5 4 5 5 9 13 9 5 7 9 10 11 12 13 14 15 16 17 19 18 19 20 20 19 17 14 12 11 12 12 12 12 14 17 15 17 15 12 15 15 12 12 12 14 13 12 12
5 5 5 4 4 5 11 13 8 5 7 9 10 11 13 14 15 15 16 17 19 19 20 21 21 19 16 13 13 14 13 11 11 11 16 17 17 17 15 12 13 13 13 15 16 14 15 12 11
6 5 5 6 6 5 11 9 7 5 6 7 8 10 12 15 16 15 15 16 18 18 18 19 19 19 18 14 13 13 14 12 11 12 13 16 18 17 13 14 13 14 13 15 15 15 12 12 11
3 1 2 7 7 6 8 9 8 5 2 3 6 8 11 13 16 16 15 17 18 17 18 17 19 19 18 18 13 13 12 12 12 13 12 15 18 17 16 15 14 14 13 12 15 14 15 13 13
2 2 4 8 9 6 9 4 11 7 1 3 7 10 13 13 15 16 16 17 18 17 16 17 18 18 18 17 15 17 14 14 16 14 13 17 17 17 17 16 16 14 13 14 14 13 12 13 12
6 4 2 7 6 3 7 7 7 6 3 6 10 12 13 13 15 16 15 15 15 16 15 16 17 17 18 18 17 16 15 14 13 14 17 17 15 16 18 17 16 16 13 15 15 15 14 11 12
4 2 3 4 5 5 3 6 4 4 2 7 10 12 14 14 15 14 13 14 14 15 15 15 17 17 18 18 18 18 18 18 18 18 17 15 14 14 18 19 17 17 15 16 16 15 16 13 14
6 5 3 3 4 1 3 5 3 6 4 7 11 14 15 13 14 13 14 14 15 16 16 15 18 18 18 18 18 18 18 19 18 18 17 17 14 14 18 18 17 16 17 17 17 16 16 15 15
7 8 7 7 7 5 2 3 5 5 4 6 10 13 14 13 13 13 14 13 15 16 16 16 17 17 17 18 18 17 18 14 13 17 16 16 14 15 19 19 18 18 19 18 17 14 16 14 14
3 4 4 6 5 8 4 3 5 3 3 8 12 14 14 13 12 13 13 13 14 15 16 16 17 17 17 17 18 17 17 16 17 18 16 14 15 16 19 19 18 18 18 18 18 13 16 15 15
5 2 3 5 8 9 7 4 2 4 6 11 14 15 15 13 11 13 12 13 14 14 15 16 16 17 16 16 15 14 16 16 17 16 17 18 19 19 20 20 19 18 17 17 16 15 15 16 15
1 1 2 2 4 7 10 4 8 4 7 11 13 14 14 13 12 14 12 13 13 14 15 15 16 16 16 16 16 16 15 16 16 15 17 18 18 19 19 20 19 19 18 17 16 16 17 16 15
0 0 2 6 5 5 8 2 9 5 6 10 14 15 13 12 12 13 13 13 13 14 14 15 15 15 15 15 15 15 15 16 16 17 18 18 19 18 18 19 19 19 19 18 18 17 16 15 15
Wind_Direction
320 322 287 243 149 92 80 58 63 68 66 60 63 68 64 48 32 56 358 351 359 8 11 12 7 360 354 349 347 349 347 345 344 345 343 337 329 321 314 315 313 309 308 304 297 292 285 272 266
324 307 257 270 106 95 77 57 56 44 26 77 66 60 58 47 22 18 351 342 3 17 18 17 20 18 12 4 354 349 343 336 327 327 328 323 316 313 311 307 306 305 307 304 291 285 280 271 260
296 299 49 69 72 72 62 29 35 67 46 51 70 51 44 21 8 353 338 338 12 25 23 21 24 26 25 23 17 7 354 345 334 326 318 312 309 304 301 298 298 300 300 301 292 282 276 268 255
267 156 80 85 76 55 38 21 21 72 47 26 74 69 71 24 0 343 342 0 25 29 28 27 27 28 27 25 24 21 14 5 352 334 320 311 304 304 305 299 293 296 296 294 293 286 281 270 255
290 85 92 88 81 66 46 30 43 49 54 31 67 81 73 19 5 356 5 19 26 28 27 28 27 27 27 25 23 21 20 18 14 4 348 334 317 311 316 306 293 296 298 293 293 300 298 287 265
71 86 95 87 85 68 51 28 34 47 50 30 53 85 65 16 5 7 16 24 27 26 25 24 24 23 23 24 23 22 20 18 17 15 9 359 345 330 323 321 305 295 296 293 291 300 302 299 285
78 74 87 95 87 62 33 41 33 43 45 34 15 77 71 16 7 9 21 26 29 27 25 22 20 18 17 20 18 18 18 18 17 15 10 6 2 352 344 333 325 316 301 293 287 283 283 285 284
39 94 93 83 84 78 60 66 52 43 49 40 36 58 31 8 13 21 29 31 30 27 23 19 16 14 11 10 14 13 16 14 12 14 10 6 3 1 355 351 345 329 314 306 297 283 280 276 272
51 91 86 82 108 115 103 91 72 67 72 64 60 59 45 26 25 29 31 29 26 24 19 15 12 9 5 4 4 6 10 11 8 8 6 3 2 360 353 355 353 347 331 315 301 290 288 281 257
50 81 62 45 101 109 82 76 97 79 60 59 59 55 45 37 34 33 30 24 20 17 14 12 10 5 2 360 358 358 2 4 5 5 3 359 356 353 351 345 351 348 343 327 307 289 278 264 252
59 83 96 77 92 106 97 72 63 98 60 52 50 46 40 38 36 32 28 23 18 12 11 8 7 5 2 357 355 354 353 357 357 1 360 356 355 350 349 345 347 343 342 338 326 305 282 271 267
83 63 98 104 95 98 96 95 71 66 78 69 59 49 43 38 35 29 22 17 12 10 8 5 3 3 1 357 354 353 352 351 350 354 356 355 351 348 346 342 340 337 338 333 327 314 300 283 270
89 86 84 91 90 89 92 87 85 77 77 72 64 53 45 39 34 31 22 16 11 7 3 1 358 360 357 355 354 352 351 349 343 346 350 352 349 344 342 337 337 334 335 331 324 314 307 294 279
113 117 113 107 100 87 87 80 75 75 80 73 61 52 44 37 29 24 18 12 7 3 359 357 356 357 355 355 354 348 346 345 342 345 345 348 347 342 338 334 333 333 334 329 319 314 306 293 284
124 118 116 116 110 128 99 72 74 85 85 70 57 50 43 35 28 23 16 11 4 359 356 356 353 355 355 354 353 347 344 344 342 344 344 352 348 344 339 332 330 335 330 324 320 316 309 299 288
152 152 119 92 109 147 145 98 88 79 77 65 53 45 39 33 26 20 15 10 3 358 357 354 353 351 352 353 350 347 346 348 345 345 348 351 348 348 338 333 333 335 328 324 323 318 314 307 296
188 155 119 111 56 122 125 127 119 97 81 67 53 42 33 25 21 16 12 9 3 0 357 355 353 351 350 352 350 348 348 347 344 346 350 347 347 345 340 333 335 334 330 329 327 323 316 308 302
115 117 118 118 76 101 121 129 126 106 76 64 49 36 27 21 15 10 7 6 2 359 357 354 351 349 349 351 348 348 346 344 341 346 346 345 343 343 339 335 336 336 332 333 330 324 318 309 304
90 110 119 103 104 104 128 134 127 106 69 51 38 27 18 12 9 7 3 2 358 357 358 354 350 347 349 351 349 345 341 340 340 344 341 341 339 339 338 336 334 334 331 328 327 329 321 316 314
119 127 134 125 126 125 146 145 138 109 68 45 28 18 9 3 1 359 357 360 357 355 356 352 350 346 347 350 347 341 333 336 340 340 338 337 335 335 335 335 332 332 328 328 330 330 322 317 321
156 292 246 167 133 141 159 176 180 155 118 56 28 10 5 3 355 353 355 358 356 353 353 351 350 346 347 351 347 341 337 337 341 340 338 336 330 330 330 330 331 328 328 325 325 323 320 317 312
235 338 280 180 180 173 209 245 171 179 174 22 12 4 357 355 354 354 354 355 352 349 348 349 348 346 348 348 347 345 341 340 337 335 332 332 329 330 327 327 328 325 324 320 317 315 309 306 303
341 345 247 192 211 183 203 264 136 182 254 357 1 353 349 352 353 352 351 350 348 348 346 348 347 348 348 347 346 343 340 337 333 334 333 333 332 333 327 328 328 326 323 319 313 308 302 296 291
314 200 133 160 212 252 186 239 137 160 3 354 351 345 349 354 348 346 345 347 348 348 346 349 349 350 350 348 347 343 339 338 336 338 337 335 332 331 329 329 328 325 321 318 312 306 300 291 284
356 309 274 244 233 283 122 240 98 123 47 0 345 345 350 350 343 345 346 348 348 348 347 350 349 348 348 347 346 341 340 337 336 337 334 333 330 328 327 327 324 321 318 315 310 309 304 294 284
15 355 359 321 316 312 205 264 126 126 41 355 347 348 351 347 345 346 347 347 346 347 346 347 346 344 344 344 343 339 340 336 333 333 331 329 326 324 323 324 320 319 317 316 311 311 312 302 291
13 38 349 291 277 273 250 143 157 164 351 344 347 352 352 346 346 345 345 346 346 347 347 345 343 341 341 341 340 338 339 337 333 331 329 327 325 323 324 322 322 320 318 317 315 311 316 313 301
45 27 290 319 327 308 299 264 186 164 345 350 351 352 350 347 349 346 347 347 347 347 345 345 343 340 338 339 338 336 337 336 333 330 330 329 326 325 324 325 325 321 320 322 317 314 316 318 310
108 103 19 317 298 300 310 359 92 62 0 347 348 354 351 349 349 347 347 349 347 346 345 344 342 341 340 340 338 337 337 337 334 333 331 329 326 326 327 327 326 325 326 328 320 316 322 324 320
331 78 295 305 299 261 284 318 118 54 357 348 349 353 352 348 345 346 347 347 346 345 344 343 341 340 339 338 337 337 338 338 338 336 333 331 329 329 329 329 327 328 330 329 324 318 329 331 330